Terminal Aerodrome Forecast
Issued by NWS

Home | Current Version | Previous Version | Text Only | Print | Product List | Glossary On
Versions: 1 2 3 4 5 6 7 8 9 10 11 12 13 14 15 16 17 18 19 20 21 22 23 24 25 26 27 28 29 30 31 32 33 34 35 36 37 38 39 40 41 42 43 44 45 46
000
FTUS42 KMFL 202321
TAFFXE
TAF
KFXE 202321Z 2100/2124 12004KT P6SM FEW030 SCT250
     FM210500 30003KT P6SM FEW250
     FM211400 10010KT P6SM VCSH SCT035 SCT250=

USA.gov is the U.S. government's official web portal to all federal, state and local government web resources and services.